User: anonymous   Login
Location: Unspecified
(49.2170°N, 0.0000°E)
Time: 14:04:11
(UTC+00:00)
Language:

Courier 1B Rocket - Orbit

View from above orbital plane
View from above orbital plane
View from above satellite
View from above satellite

Ground track
Ground track

The orbit data is extracted from the following two-line orbital elements,

1 00059U 60013B   21024.74727054  .00000079  00000-0 -10198-4 0  9999
2 00059  28.2477 161.4638 0189275 343.5506  15.8963 13.52982345976504
Epoch (UTC): 24 January 2021 17:56:04
Eccentricity: 0.0189275
inclination: 28.2477°
perigee height: 920 km
apogee height: 1202 km
right ascension of ascending node: 161.4638°
argument of perigee: 343.5506°
revolutions per day: 13.52982345
mean anomaly at epoch: 15.8963°
orbit number at epoch: 97650

The dashed part of the orbit path shows where the satellite is in the earth's shadow,  

DLR